GW7369 Weather Reports


time (UTC)temp
C
wind
direction
speed
KPH
gust
KPH
rain 1hr
cm
rain 24hr
cm
rain mn
cm
humidity
%
barometer
mb
20260510141910 20 271 6.4 11.3 0.00 0.05 0.05 88 1018.6
20260510141410 20 248 4.8 9.7 0.00 0.05 0.05 90 1018.6
20260510140909 20 268 4.8 9.7 0.00 0.05 0.05 90 1019.0
20260510140409 20 336 6.4 9.7 0.00 0.05 0.05 90 1019.0
20260510135910 19 275 4.8 9.7 0.00 0.05 0.05 92 1019.0
20260510135410 19 246 4.8 8.0 0.00 0.05 0.05 92 1018.6
20260510134910 19 250 4.8 8.0 0.00 0.05 0.05 92 1019.0
20260510134410 18 259 4.8 8.0 0.00 0.05 0.05 93 1019.0
20260510133910 18 316 4.8 8.0 0.00 0.05 0.05 94 1018.6
20260510133410 18 263 6.4 8.0 0.00 0.05 0.05 94 1019.0
20260510132909 18 264 3.2 11.3 0.00 0.05 0.05 95 1018.6
20260510132410 18 274 1.6 11.3 0.00 0.03 0.03 95 1018.6
20260510131910 18 331 8.0 11.3 0.00 0.03 0.03 97 1018.6
20260510131409 18 327 4.8 11.3 0.00 0.03 0.03 99 1018.6
20260510130909 17 0.0 9.7 0.00 0.03 0.03 98 1018.6
20260510130410 17 281 6.4 9.7 0.00 0.03 0.03 98 1018.6
20260510125910 17 358 3.2 8.0 0.00 0.03 0.03 99 1018.6
20260510125409 17 348 4.8 8.0 0.00 0.03 0.03 99 1018.6
20260510124909 17 333 4.8 8.0 0.00 0.03 0.03 99 1018.6
20260510124410 17 261 1.6 4.8 0.00 0.03 0.03 99 1018.6
20260510123910 16 344 0.0 4.8 0.00 0.03 0.03 99 1018.6
20260510123409 16 11 1.6 4.8 0.00 0.03 0.03 99 1018.3
20260510122909 17 21 1.6 4.8 0.00 0.03 0.03 98 1018.3
20260510122409 16 32 0.0 4.8 0.00 0.03 0.03 99 1018.3
20260510121910 16 161 1.6 3.2 0.00 0.03 0.03 99 1018.3
20260510121410 16 155 0.0 3.2 0.00 0.03 0.03 99 1017.9
20260510120910 15 113 0.0 4.8 0.00 0.03 0.03 99 1017.9
20260510120410 15 324 0.0 4.8 0.00 0.03 0.03 99 1017.9
20260510115909 15 177 3.2 4.8 0.00 0.03 0.03 99 1017.9
20260510115409 15 169 3.2 4.8 0.00 0.03 0.03 99 1017.6
20260510114910 15 152 3.2 4.8 0.00 0.03 0.03 99 1017.9
20260510114409 15 69 0.0 3.2 0.00 0.03 0.03 99 1017.9
20260510113909 15 37 3.2 3.2 0.00 0.03 0.03 99 1017.9
20260510113410 15 131 0.0 4.8 0.00 0.03 0.03 99 1017.9
20260510112909 15 249 1.6 4.8 0.00 0.03 0.03 99 1017.6
20260510112409 15 54 0.0 3.2 0.00 0.03 0.03 99 1017.6
20260510111909 14 94 0.0 3.2 0.00 0.03 0.03 99 1017.6
20260510111409 14 230 1.6 4.8 0.00 0.03 0.03 99 1017.2
20260510110909 14 203 1.6 4.8 0.00 0.03 0.03 99 1016.8
20260510110409 14 210 0.0 4.8 0.00 0.03 0.03 99 1017.2
20260510105910 15 186 3.2 4.8 0.00 0.03 0.03 99 1016.8
20260510105409 15 155 1.6 4.8 0.03 0.03 0.03 99 1016.8
20260510104909 15 200 0.0 4.8 0.03 0.03 0.03 99 1016.5
20260510104409 15 134 3.2 3.2 0.03 0.03 0.03 99 1016.5
20260510103909 15 120 1.6 4.8 0.00 0.03 0.03 99 1016.8
20260510103410 15 15 0.0 4.8 0.00 0.03 0.03 99 1016.5
20260510102910 15 93 3.2 4.8 0.00 0.03 0.03 99 1016.5
20260510102409 15 152 3.2 6.4 0.00 0.03 0.03 99 1016.1
20260510101909 15 228 0.0 6.4 0.03 0.03 0.03 99 1016.5
20260510101409 15 251 3.2 4.8 0.03 0.03 0.03 99 1016.1
20260510100909 15 177 3.2 4.8 0.03 0.03 0.03 99 1016.1
20260510100410 15 191 1.6 4.8 0.03 0.03 0.03 99 1016.1
20260510095910 15 152 4.8 4.8 0.03 0.03 0.03 99 1016.1
20260510095409 15 250 3.2 6.4 0.00 0.00 0.00 99 1016.1
20260510094909 15 216 0.0 6.4 0.00 0.00 0.00 99 1015.8
20260510094409 15 292 4.8 6.4 0.00 0.00 0.00 99 1016.1
20260510093910 15 324 3.2 8.0 0.00 0.00 0.00 99 1015.8
20260510093409 15 264 4.8 8.0 0.00 0.00 0.00 99 1016.1
20260510092909 15 290 3.2 6.4 0.00 0.00 0.00 99 1016.1
20260510092410 15 201 3.2 6.4 0.00 0.00 0.00 99 1015.8
20260510091910 15 225 3.2 6.4 0.00 0.00 0.00 99 1015.8
20260510091409 15 226 3.2 4.8 0.00 0.00 0.00 99 1015.8
20260510090909 15 227 1.6 6.4 0.00 0.00 0.00 99 1016.1
20260510090409 15 194 3.2 9.7 0.00 0.00 0.00 99 1015.8
20260510085909 15 204 3.2 9.7 0.00 0.00 0.00 99 1015.8
20260510085409 15 230 6.4 8.0 0.00 0.00 0.00 99 1015.8
20260510084910 15 203 4.8 8.0 0.00 0.00 0.00 99 1015.8
20260510084410 15 207 3.2 8.0 0.00 0.00 0.00 99 1015.8
20260510083909 15 203 4.8 8.0 0.00 0.00 0.00 99 1015.4
20260510083410 15 273 3.2 6.4 0.00 0.00 0.00 99 1015.8
20260510082909 15 257 3.2 6.4 0.00 0.00 0.00 99 1015.4
20260510082409 15 146 4.8 8.0 0.00 0.00 0.00 99 1015.8
20260510081909 15 251 3.2 9.7 0.00 0.00 0.00 99 1015.8
20260510081410 15 262 6.4 9.7 0.00 0.00 0.00 99 1015.8
20260510080909 15 303 4.8 9.7 0.00 0.00 0.00 99 1015.4
20260510080409 16 354 1.6 11.3 0.00 0.00 0.00 99 1015.8
20260510075910 16 316 4.8 11.3 0.00 0.00 0.00 99 1015.1
20260510075410 16 264 6.4 8.0 0.00 0.00 0.00 99 1015.4
20260510074910 16 333 4.8 9.7 0.00 0.00 0.00 99 1015.1
20260510074409 16 284 3.2 9.7 0.00 0.00 0.00 99 1015.1
20260510073909 16 245 6.4 9.7 0.00 0.00 0.00 99 1015.1
20260510073410 16 134 1.6 8.0 0.00 0.00 0.00 99 1015.1
20260510072909 16 316 1.6 8.0 0.00 0.00 0.00 99 1015.1
20260510072410 16 291 3.2 11.3 0.00 0.00 0.00 99 1015.1
20260510071909 16 260 4.8 11.3 0.00 0.00 0.00 99 1015.1
20260510071409 16 321 6.4 9.7 0.00 0.00 0.00 99 1015.1
20260510070909 16 256 6.4 9.7 0.00 0.00 0.00 99 1015.4
20260510070409 16 273 4.8 11.3 0.00 0.00 0.00 99 1015.1
20260510065909 16 271 3.2 11.3 0.00 0.00 0.00 99 1015.1
20260510065409 16 84 1.6 11.3 0.00 0.00 0.00 99 1015.4
20260510064909 16 279 4.8 8.0 0.00 0.00 0.00 99 1015.1
20260510064410 16 336 3.2 6.4 0.00 0.00 0.00 98 1015.4
20260510063909 16 283 4.8 9.7 0.00 0.00 0.00 98 1015.1
20260510063409 16 281 4.8 9.7 0.00 0.00 0.00 98 1015.1
20260510062910 16 280 6.4 12.9 0.00 0.00 0.00 98 1015.4
20260510062409 16 252 4.8 16.1 0.00 0.00 0.00 98 1015.4
20260510061909 16 248 9.7 16.1 0.00 0.00 0.00 98 1015.4
20260510061409 16 247 8.0 12.9 0.00 0.00 0.00 97 1015.4
20260510060910 16 221 9.7 12.9 0.00 0.00 0.00 97 1015.4
20260510060409 16 225 4.8 12.9 0.00 0.00 0.00 97 1015.8
20260510055909 16 240 8.0 9.7 0.00 0.00 0.00 96 1015.4
20260510055409 16 220 3.2 8.0 0.00 0.00 0.00 96 1015.4
20260510054910 16 202 4.8 8.0 0.00 0.00 0.00 96 1015.8
20260510054409 16 223 4.8 6.4 0.00 0.00 0.00 95 1015.4
20260510053909 16 196 0.0 4.8 0.00 0.00 0.00 95 1015.4
20260510053409 16 237 0.0 4.8 0.00 0.00 0.00 94 1015.4
20260510052909 16 189 1.6 4.8 0.00 0.00 0.00 93 1015.8
20260510052409 16 244 3.2 4.8 0.00 0.00 0.00 93 1015.8
20260510051909 16 217 0.0 4.8 0.00 0.00 0.00 92 1015.4
20260510051410 17 266 1.6 6.4 0.00 0.00 0.00 93 1015.8
20260510050909 17 282 4.8 6.4 0.00 0.00 0.00 94 1015.4
20260510050409 16 262 4.8 6.4 0.00 0.00 0.00 95 1015.4
20260510045910 16 234 3.2 4.8 0.00 0.00 0.00 95 1015.4
20260510045410 16 216 1.6 3.2 0.00 0.00 0.00 94 1015.4
20260510044909 16 200 1.6 3.2 0.00 0.00 0.00 94 1015.8
20260510044410 16 166 0.0 0.0 0.00 0.00 0.00 93 1015.8
20260510043910 16 333 0.0 0.0 0.00 0.00 0.00 93 1015.8
20260510043409 16 333 0.0 3.2 0.00 0.00 0.00 93 1015.4
20260510042909 16 5 0.0 3.2 0.00 0.00 0.00 93 1015.4
20260510042409 16 331 1.6 3.2 0.00 0.00 0.00 92 1015.8
20260510041909 16 0.0 3.2 0.00 0.00 0.00 92 1015.8
20260510041409 17 300 1.6 4.8 0.00 0.00 0.00 92 1015.8
20260510040909 17 325 1.6 4.8 0.00 0.00 0.00 92 1015.8
20260510040409 17 327 1.6 4.8 0.00 0.00 0.00 93 1015.8
20260510035909 17 299 1.6 3.2 0.00 0.00 0.00 92 1015.8
20260510035409 17 297 1.6 3.2 0.00 0.00 0.00 92 1015.8
20260510034909 17 309 1.6 3.2 0.00 0.00 0.00 92 1015.8
20260510034409 17 263 3.2 4.8 0.00 0.00 0.00 92 1015.8
20260510033909 17 273 1.6 4.8 0.00 0.00 0.00 93 1015.8
20260510033409 17 305 3.2 4.8 0.00 0.00 0.00 92 1016.1
20260510032909 17 295 1.6 6.4 0.00 0.00 0.00 91 1015.8
20260510032409 17 283 0.0 6.4 0.00 0.00 0.00 92 1015.8
20260510031909 17 250 6.4 6.4 0.00 0.00 0.00 92 1015.8
20260510031409 17 273 3.2 6.4 0.00 0.00 0.00 92 1015.8
20260510030909 17 247 4.8 6.4 0.00 0.00 0.00 92 1015.8
20260510030409 17 239 1.6 8.0 0.00 0.00 0.00 92 1015.8
20260510025909 17 269 3.2 8.0 0.00 0.00 0.00 92 1015.8
20260510025409 17 252 6.4 8.0 0.00 0.00 0.00 92 1015.8
20260510024909 17 251 4.8 8.0 0.00 0.00 0.00 92 1015.8
20260510024409 17 252 3.2 6.4 0.00 0.00 0.00 92 1015.8
20260510023909 17 263 4.8 6.4 0.00 0.00 0.00 92 1015.4
20260510023410 18 231 4.8 9.7 0.00 0.00 0.00 92 1015.4
20260510022910 18 246 6.4 9.7 0.00 0.00 0.00 92 1015.4
20260510022409 17 222 9.7 9.7 0.00 0.00 0.00 93 1015.4
20260510021909 17 235 4.8 9.7 0.00 0.00 0.00 93 1015.4
20260510021409 18 170 3.2 11.3 0.00 0.00 0.00 92 1015.1
20260510020910 18 182 4.8 12.9 0.00 0.00 0.00 91 1015.1
20260510020409 18 241 8.0 12.9 0.00 0.00 0.00 91 1015.1
20260510015909 18 213 4.8 11.3 0.00 0.00 0.00 91 1014.7
20260510015409 18 213 6.4 11.3 0.00 0.00 0.00 90 1014.7
20260510014909 18 220 4.8 11.3 0.00 0.00 0.00 90 1014.7
20260510014409 18 212 3.2 12.9 0.00 0.00 0.00 89 1014.7
20260510013909 18 204 4.8 12.9 0.00 0.00 0.00 88 1014.4
20260510013409 18 203 8.0 12.9 0.00 0.00 0.00 86 1014.4
20260510012909 19 199 4.8 12.9 0.00 0.00 0.00 85 1014.0
20260510012409 19 231 8.0 8.0 0.00 0.00 0.00 86 1014.0
20260510011909 19 197 4.8 8.0 0.00 0.00 0.00 85 1013.7
20260510011409 20 195 4.8 8.0 0.00 0.00 0.00 82 1013.7
20260510010909 20 192 3.2 6.4 0.00 0.00 0.00 81 1013.7
20260510010409 20 233 4.8 6.4 0.00 0.00 0.00 82 1013.7
20260510005909 20 199 3.2 4.8 0.00 0.00 0.00 81 1013.7
20260510005410 20 204 4.8 6.4 0.00 0.00 0.00 79 1013.3
20260510004910 20 212 1.6 6.4 0.00 0.00 0.00 77 1013.3
20260510004410 21 208 3.2 6.4 0.00 0.00 0.00 78 1013.3
20260510003910 21 203 1.6 8.0 0.00 0.00 0.00 77 1013.3
20260510003409 21 220 4.8 8.0 0.00 0.00 0.00 76 1013.3
20260510002910 21 214 3.2 6.4 0.00 0.00 0.00 75 1013.3
20260510002410 21 214 3.2 6.4 0.00 0.00 0.00 75 1013.0
20260510001909 21 235 3.2 8.0 0.00 0.00 0.00 74 1013.3
20260510001409 21 218 4.8 8.0 0.00 0.00 0.00 74 1013.0
20260510000909 21 239 6.4 8.0 0.00 0.00 0.00 71 1013.0
20260510000411 22 229 3.2 8.0 0.00 0.00 0.00 72 1013.0
20260509235909 22 249 4.8 8.0 0.00 0.00 0.00 71 1013.0
20260509235409 21 218 6.4 8.0 0.00 0.00 0.00 72 1013.3
20260509234909 22 255 4.8 8.0 0.00 0.00 0.00 72 1013.0
20260509234409 22 251 3.2 8.0 0.00 0.00 0.00 71 1013.0
20260509233909 21 231 3.2 8.0 0.00 0.00 0.00 70 1013.0
20260509233409 21 197 3.2 6.4 0.00 0.00 0.00 73 1013.0
20260509232909 22 219 6.4 6.4 0.00 0.00 0.00 71 1013.0
20260509232409 21 313 3.2 6.4 0.00 0.00 0.00 69 1013.0
20260509231909 22 258 4.8 6.4 0.00 0.00 0.00 70 1013.0
20260509231409 22 279 6.4 6.4 0.00 0.00 0.00 69 1012.6
20260509230910 22 26 1.6 4.8 0.00 0.00 0.00 68 1013.0
20260509230410 22 50 0.0 4.8 0.00 0.00 0.00 69 1012.6
20260509225909 22 324 3.2 6.4 0.00 0.00 0.00 70 1013.0
20260509225409 21 7 4.8 9.7 0.00 0.00 0.00 70 1013.0
20260509224910 21 310 4.8 9.7 0.00 0.00 0.00 69 1013.0
20260509224409 22 325 6.4 8.0 0.00 0.00 0.00 68 1013.0
20260509223909 22 290 6.4 8.0 0.00 0.00 0.00 68 1013.0
20260509223409 22 319 4.8 8.0 0.00 0.00 0.00 67 1012.6
20260509222910 22 324 4.8 8.0 0.00 0.00 0.00 69 1012.6
20260509222409 22 346 4.8 8.0 0.00 0.00 0.00 68 1012.6
20260509221909 22 344 4.8 9.7 0.00 0.00 0.00 67 1012.6
20260509221409 22 351 6.4 11.3 0.00 0.00 0.00 67 1012.6
20260509220909 22 350 3.2 12.9 0.00 0.00 0.00 67 1012.3
20260509220409 22 310 3.2 12.9 0.00 0.00 0.00 66 1012.6
20260509215909 22 314 11.3 12.9 0.00 0.00 0.00 66 1012.6
20260509215409 22 351 9.7 12.9 0.00 0.00 0.00 66 1012.6
20260509214909 22 334 3.2 14.5 0.00 0.00 0.00 67 1012.6
20260509214409 22 321 8.0 14.5 0.00 0.00 0.00 66 1012.3
20260509213909 22 344 11.3 16.1 0.00 0.00 0.00 66 1012.3
20260509213409 22 336 9.7 16.1 0.00 0.00 0.00 66 1012.3
20260509212909 22 336 8.0 12.9 0.00 0.00 0.00 66 1012.6
20260509212409 22 341 8.0 14.5 0.00 0.00 0.00 65 1012.6
20260509211909 22 352 8.0 16.1 0.00 0.00 0.00 65 1012.6
20260509211409 22 343 14.5 16.1 0.00 0.00 0.00 64 1012.6
20260509210910 22 272 6.4 16.1 0.00 0.00 0.00 66 1012.6
20260509210409 22 336 12.9 16.1 0.00 0.00 0.00 67 1012.6
20260509205909 22 299 12.9 16.1 0.00 0.00 0.00 66 1012.6
20260509205409 22 3 4.8 16.1 0.00 0.00 0.00 69 1012.6
20260509204909 22 308 8.0 19.3 0.00 0.00 0.00 68 1012.3
20260509204409 22 327 11.3 19.3 0.00 0.00 0.00 67 1012.6
20260509203909 22 351 8.0 16.1 0.00 0.00 0.00 67 1012.6
20260509203409 22 340 11.3 16.1 0.00 0.00 0.00 65 1013.0
20260509202909 22 316 4.8 14.5 0.00 0.00 0.00 65 1013.0
20260509202409 22 335 4.8 17.7 0.00 0.00 0.00 65 1012.6
20260509201909 22 16 6.4 19.3 0.00 0.00 0.00 66 1013.0
20260509201409 22 328 14.5 19.3 0.00 0.00 0.00 64 1013.0
20260509200909 22 343 11.3 17.7 0.00 0.00 0.00 65 1013.3
20260509200409 22 306 8.0 17.7 0.00 0.00 0.00 65 1013.0
20260509195909 22 318 11.3 17.7 0.00 0.00 0.00 64 1013.0
20260509195409 22 319 9.7 17.7 0.00 0.00 0.00 65 1013.3
20260509194909 22 293 8.0 17.7 0.00 0.00 0.00 64 1013.3
20260509194409 21 247 9.7 17.7 0.00 0.00 0.00 66 1013.3
20260509193909 21 210 6.4 17.7 0.00 0.00 0.00 67 1013.3
20260509193409 21 258 11.3 17.7 0.00 0.00 0.00 66 1013.3
20260509192909 21 331 8.0 19.3 0.00 0.00 0.00 67 1013.3
20260509192409 21 272 9.7 19.3 0.00 0.00 0.00 64 1013.3
20260509191909 21 290 17.7 19.3 0.00 0.00 0.00 66 1013.3
20260509191409 21 288 11.3 16.1 0.00 0.00 0.00 69 1013.0
20260509190909 21 313 12.9 16.1 0.00 0.00 0.00 69 1013.0
20260509190409 21 317 11.3 17.7 0.00 0.00 0.00 69 1013.0
20260509185909 21 323 8.0 17.7 0.00 0.00 0.00 67 1013.0
20260509185409 21 223 8.0 17.7 0.00 0.00 0.00 69 1013.3
20260509184909 21 257 9.7 19.3 0.00 0.00 0.00 67 1013.3
20260509184409 21 252 8.0 19.3 0.00 0.00 0.00 69 1013.3
20260509183909 21 250 12.9 19.3 0.00 0.00 0.00 68 1013.3
20260509183409 21 295 12.9 19.3 0.00 0.00 0.00 69 1013.3
20260509182909 21 238 14.5 17.7 0.00 0.00 0.00 69 1013.3
20260509182409 21 217 4.8 17.7 0.00 0.00 0.00 70 1013.3
20260509181909 21 239 11.3 17.7 0.00 0.00 0.00 71 1013.3
20260509181409 21 232 9.7 16.1 0.00 0.00 0.00 70 1013.3
20260509180909 21 237 14.5 17.7 0.00 0.00 0.00 69 1013.7
20260509180409 21 276 12.9 17.7 0.00 0.00 0.00 69 1013.7
20260509175909 21 284 9.7 20.9 0.00 0.00 0.00 71 1013.7
20260509175410 21 229 16.1 22.5 0.00 0.00 0.00 69 1013.7
20260509174909 21 246 9.7 22.5 0.00 0.00 0.00 69 1014.0
20260509174409 20 264 6.4 20.9 0.00 0.00 0.00 72 1013.7
20260509173909 20 222 12.9 22.5 0.00 0.00 0.00 70 1013.7
20260509173409 20 269 14.5 22.5 0.00 0.00 0.00 71 1014.0
20260509172909 21 276 12.9 19.3 0.00 0.00 0.00 70 1014.0
20260509172409 20 228 8.0 19.3 0.00 0.00 0.00 70 1013.3
20260509171909 20 296 12.9 20.9 0.00 0.00 0.00 71 1013.7
20260509171409 20 301 8.0 20.9 0.00 0.00 0.00 73 1013.7
20260509170909 20 247 11.3 24.1 0.00 0.00 0.00 71 1013.7
20260509170409 20 264 12.9 24.1 0.00 0.00 0.00 70 1014.0
20260509165909 20 269 12.9 20.9 0.00 0.00 0.00 71 1013.7
20260509165409 20 200 6.4 20.9 0.00 0.00 0.00 71 1013.7
20260509164909 20 246 11.3 20.9 0.00 0.00 0.00 72 1013.7
20260509164409 20 246 14.5 16.1 0.00 0.00 0.00 71 1013.7
20260509163909 20 255 8.0 17.7 0.00 0.00 0.00 75 1013.3
20260509163409 20 283 6.4 17.7 0.00 0.00 0.00 75 1013.7
20260509162909 19 244 11.3 17.7 0.00 0.00 0.00 76 1013.7
20260509162409 19 228 12.9 20.9 0.00 0.00 0.00 75 1014.0
20260509161909 18 286 11.3 20.9 0.00 0.00 0.00 78 1014.0
20260509161409 19 257 6.4 24.1 0.00 0.00 0.00 77 1014.0
20260509160909 18 251 8.0 24.1 0.00 0.00 0.00 78 1014.0
20260509160409 18 259 22.5 24.1 0.00 0.00 0.00 79 1014.0
20260509155909 18 265 8.0 14.5 0.00 0.00 0.00 80 1014.0
20260509155409 18 242 4.8 16.1 0.00 0.00 0.00 81 1014.0
20260509154909 18 241 8.0 17.7 0.00 0.00 0.00 81 1014.4
20260509154409 17 190 1.6 17.7 0.00 0.00 0.00 83 1014.0
20260509153908 17 227 9.7 17.7 0.00 0.00 0.00 84 1014.0
20260509153409 17 246 8.0 16.1 0.00 0.00 0.00 84 1014.0
20260509152909 17 238 11.3 19.3 0.00 0.00 0.00 85 1014.0
20260509152409 17 275 11.3 19.3 0.00 0.00 0.00 85 1014.0
20260509151909 17 228 9.7 17.7 0.00 0.00 0.00 86 1013.7
20260509151409 17 235 14.5 17.7 0.00 0.00 0.00 86 1013.7
20260509150909 16 268 9.7 17.7 0.00 0.00 0.00 87 1013.3
20260509150409 16 258 11.3 17.7 0.00 0.00 0.00 87 1013.7
20260509145909 16 250 8.0 17.7 0.00 0.00 0.00 89 1013.7
20260509145409 16 279 9.7 17.7 0.00 0.00 0.00 88 1013.7
20260509144909 16 249 9.7 17.7 0.00 0.00 0.00 88 1014.0
20260509144409 16 215 11.3 17.7 0.00 0.00 0.00 88 1013.7
20260509143909 16 253 8.0 17.7 0.00 0.00 0.00 88 1013.7
20260509143409 16 237 6.4 16.1 0.00 0.00 0.00 90 1013.7
20260509142909 16 250 8.0 17.7 0.00 0.00 0.00 90 1013.7
20260509142409 15 268 8.0 17.7 0.00 0.00 0.00 91 1013.7